[[{"header":{"parameterUnit":"m.s-1","parameterCategory":1,"la1":30.2991,"la2":30.254,"lo1":-89.0895,"lo2":-89.0444,"dy":0.0017,"dx":0.0017,"nx":28,"ny":28,"refTime":"2024-04-16T03:00:00:Z","depth":0,"parameterNumber":2,"parameterNumberName":"U-component_of_WINDS"},"data":[0,0,0,0,0,0,0,0,0,0,0,0,0,0,0,0,0,0,0,0,0,0,0,0,0,0,0,0,0,0,0,0,0,0,0,0,0,0,0,0,0,0,0,0,0,0,0,0,0,0,0,0,0,0,0,0,0,0,-2.6263,-2.6265,0,-2.6385,-2.6387,-2.6388,-2.6436,-2.6435,-2.6435,-2.6435,-2.6561,-2.6564,-2.6568,0,0,0,0,0,0,0,0,0,0,0,0,0,-2.6073,-2.6076,-2.6263,-2.6265,-2.6266,-2.6385,-2.6387,-2.6388,-2.6436,-2.6435,-2.6435,-2.6435,-2.6559,-2.6564,-2.6568,0,0,0,0,0,0,0,0,0,0,0,0,0,-2.6171,-2.6078,-2.6263,-2.6304,-2.6309,-2.6385,-2.6387,-2.6389,-2.6436,-2.6435,-2.6435,-2.6434,-2.6558,-2.6563,-2.6569,-2.6613,0,0,-2.6586,-2.6588,0,0,0,0,0,0,0,0,-2.6166,-2.6178,-2.6297,-2.6302,-2.6307,-2.6395,-2.6366,-2.6464,-2.6436,-2.6388,-2.6435,-2.6434,-2.6506,-2.6516,-2.654,-2.6618,-2.6624,-2.6586,-2.6589,-2.6592,-2.6593,0,0,0,0,0,0,0,-2.6159,-2.6173,-2.6312,-2.6298,-2.6305,-2.6317,-2.6331,-2.6385,-2.6448,-2.6392,-2.6396,-2.6409,-2.6509,-2.6534,-2.6543,-2.6626,-2.6586,-2.6591,-2.6594,-2.6596,-2.6747,-2.6748,0,0,0,0,0,0,-2.6145,-2.6167,-2.6308,-2.6315,-2.6234,-2.6321,-2.6336,-2.6367,-2.6448,-2.6459,-2.641,-2.6411,-2.6525,-2.6536,-2.6548,-2.6604,-2.6592,-2.6597,-2.66,-2.6746,-2.6747,-2.6748,0,0,0,0,0,0,-2.6141,-2.6157,-2.6303,-2.6242,-2.6262,-2.6325,-2.6359,-2.637,-2.6395,-2.6461,-2.6473,-2.6424,-2.6525,-2.654,-2.6596,-2.6609,-2.6599,-2.6604,-2.6746,-2.6747,-2.6748,-2.6717,0,0,0,0,0,0,-2.6135,-2.6155,-2.6172,-2.6242,-2.6265,-2.6349,-2.636,-2.6373,-2.6405,-2.6408,-2.6478,-2.6489,-2.6526,-2.6588,-2.6602,-2.6617,-2.6609,-2.6745,-2.6746,-2.6747,-2.6718,-2.6717,-2.6717,0,0,0,0,0,-2.6128,-2.6159,-2.6173,-2.6189,-2.6287,-2.6349,-2.6362,-2.6404,-2.6405,-2.6423,-2.6466,-2.6487,-2.6606,-2.6593,-2.6609,-2.6626,-2.6744,-2.6746,-2.6747,-2.6718,-2.6717,-2.6717,0,0,0,0,0,0,-2.6089,-2.6169,-2.6185,-2.6239,-2.6287,-2.6357,-2.6381,-2.6402,-2.6451,-2.6452,-2.6502,-2.6518,-2.657,-2.6604,-2.6588,-2.6673,-2.6677,-2.6681,-2.6648,-2.6649,-2.6649,-2.6639,-2.6613,0,0,0,0,0,-2.6087,-2.613,-2.6198,-2.6239,-2.6262,-2.6317,-2.6346,-2.6374,-2.6425,-2.6446,-2.6493,-2.6542,-2.6591,-2.6622,-2.667,-2.6723,-2.6739,-2.6743,-2.6743,-2.6742,-2.6746,-2.6776,-2.6779,-2.6753,-2.6753,-2.6753,0,0,-2.6082,-2.6131,-2.6155,-2.6232,-2.6273,-2.6317,-2.6334,-2.638,-2.6413,-2.6453,-2.6509,-2.6545,-2.6604,-2.6658,-2.6685,-2.6688,-2.6756,-2.6744,-2.6743,-2.6747,-2.6778,-2.678,-2.6783,-2.6755,-2.6754,-2.6754,0,0,-2.6096,-2.6138,-2.6177,-2.6217,-2.6277,-2.6314,-2.6323,-2.6391,-2.6416,-2.6472,-2.6504,-2.6544,-2.6627,-2.6668,-2.6699,-2.673,-2.6751,-2.6744,-2.6743,-2.6772,-2.6774,-2.6776,-2.6787,-2.679,-2.6748,-2.6748,-2.6748,0,-2.6083,-2.615,-2.6194,-2.6238,-2.6271,-2.631,-2.635,-2.6387,-2.646,-2.6483,-2.6486,-2.6591,-2.6633,-2.6698,-2.6705,-2.6729,-2.6742,-2.6736,-2.6771,-2.6773,-2.6776,-2.6786,-2.679,-2.6746,-2.6747,-2.6747,-2.6747,0,-2.6131,-2.6177,-2.6202,-2.6271,-2.6307,-2.6349,-2.64,-2.6431,-2.6456,-2.6493,-2.655,-2.6603,-2.6662,-2.668,-2.6705,-2.6749,-2.6749,-2.6761,-2.6765,-2.6776,-2.6787,-2.6791,-2.6745,-2.6745,-2.6745,-2.6746,0,0,-2.6123,-2.6217,-2.6225,-2.6257,-2.6327,-2.6364,-2.6408,-2.6466,-2.6492,-2.6542,-2.658,-2.665,-2.6661,-2.6697,-2.6727,-2.6753,-2.6774,-2.6762,-2.6764,-2.6762,-2.6825,-2.6815,-2.6819,-2.6788,-2.6789,-2.679,-2.682,0,-2.6147,-2.6226,-2.6267,-2.6329,-2.6373,-2.641,-2.6449,-2.6496,-2.6531,-2.6574,-2.6614,-2.6662,-2.6673,-2.6695,-2.6722,-2.6765,-2.6787,-2.6764,-2.6825,-2.6826,-2.6808,-2.6825,-2.6815,-2.684,-2.6824,-2.6825,-2.6826,0,-2.6184,-2.6233,-2.6299,-2.6364,-2.6384,-2.6418,-2.6474,-2.6515,-2.6569,-2.6594,-2.6634,-2.6663,-2.6712,-2.6713,-2.6781,-2.6765,-2.6792,-2.6817,-2.6819,-2.6826,-2.6826,-2.6832,-2.6849,-2.6853,-2.6833,-2.6832,-2.6832,0,-2.6171,-2.6254,-2.6304,-2.633,-2.6408,-2.6431,-2.6464,-2.6519,-2.6551,-2.6601,-2.6623,-2.6678,-2.6708,-2.675,-2.6795,-2.6792,-2.6858,-2.6863,-2.688,-2.6878,-2.6891,-2.689,-2.6913,-2.691,-2.691,-2.691,-2.691,0,-2.6193,-2.6232,-2.6299,-2.633,-2.6375,-2.6422,-2.6466,-2.6503,-2.6551,-2.659,-2.6626,-2.6662,-2.6719,-2.6762,-2.6797,-2.6848,-2.6862,-2.6883,-2.6892,-2.6879,-2.6876,-2.6898,-2.6897,-2.6911,-2.6911,-2.691,-2.691,0,-2.6185,-2.6232,-2.629,-2.6358,-2.6376,-2.6407,-2.6466,-2.6498,-2.6535,-2.6584,-2.6598,-2.6657,-2.6711,-2.6759,-2.683,-2.6854,-2.6905,-2.6916,-2.6886,-2.6891,-2.6904,-2.6902,-2.6941,-2.6949,-2.6941,-2.6941,-2.6941,0,-2.6196,-2.6226,-2.6298,-2.6327,-2.6359,-2.6405,-2.6438,-2.6486,-2.652,-2.6585,-2.6609,-2.6664,-2.6711,-2.6795,-2.6844,-2.6899,-2.6911,-2.6921,-2.692,-2.6907,-2.6911,-2.6909,-2.6912,-2.692,-2.692,-2.692,-2.692,0,-2.6209,-2.623,-2.6276,-2.6331,-2.6369,-2.6415,-2.6461,-2.6483,-2.654,-2.6576,-2.663,-2.6666,-2.6738,-2.6793,-2.6853,-2.6889,-2.6914,-2.692,-2.6927,-2.6914,-2.6895,-2.6906,-2.6884,-2.6919,-2.6919,-2.6919,-2.6919,-2.6919,-2.6211,-2.624,-2.6295,-2.6345,-2.6385,-2.6428,-2.6461,-2.6502,-2.6548,-2.661,-2.6636,-2.6691,-2.6747,-2.683,-2.6865,-2.691,-2.6915,-2.6924,-2.6927,-2.6928,-2.6926,-2.6889,-2.6921,-2.6921,-2.6921,-2.6921,-2.6921,0,-2.6225,-2.6262,-2.6308,-2.6372,-2.6412,-2.6432,-2.6484,-2.6516,-2.6564,-2.6613,-2.6659,-2.6721,-2.6775,-2.6829,-2.6886,-2.6911,-2.6924,-2.6924,-2.6922,-2.693,-2.6918,-2.6906,-2.6913,-2.6913,-2.6913,-2.6913,-2.6913,-2.6913,-2.6237,-2.6288,-2.6316,-2.6387,-2.6424,-2.6478,-2.6506,-2.6546,-2.6585,-2.6653,-2.6698,-2.6733,-2.6784,-2.6845,-2.6895,-2.691,-2.6929,-2.6926,-2.6943,-2.6931,-2.6931,-2.6931,-2.6921,-2.693,-2.693,-2.6952,-2.6952,-2.6952]},{"header":{"parameterUnit":"m.s-1","parameterCategory":1,"la1":30.2991,"la2":30.254,"lo1":-89.0895,"lo2":-89.0444,"dy":0.0017,"dx":0.0017,"nx":28,"ny":28,"refTime":"2024-04-16T03:00:00:Z","depth":0,"parameterNumber":3,"parameterNumberName":"V-component_of_WINDS"},"data":[0,0,0,0,0,0,0,0,0,0,0,0,0,0,0,0,0,0,0,0,0,0,0,0,0,0,0,0,0,0,0,0,0,0,0,0,0,0,0,0,0,0,0,0,0,0,0,0,0,0,0,0,0,0,0,0,0,0,3.114,3.114,0,3.114,3.114,3.114,3.1109,3.1109,3.1108,3.1107,3.1108,3.1108,3.1109,0,0,0,0,0,0,0,0,0,0,0,0,0,3.1115,3.1116,3.114,3.114,3.114,3.114,3.114,3.114,3.1109,3.1108,3.1107,3.1107,3.1107,3.1108,3.1109,0,0,0,0,0,0,0,0,0,0,0,0,0,3.1122,3.1116,3.114,3.1125,3.1123,3.114,3.114,3.114,3.111,3.1108,3.1107,3.1106,3.1107,3.1108,3.1109,3.1141,0,0,3.1113,3.1113,0,0,0,0,0,0,0,0,3.1121,3.1123,3.1127,3.1126,3.1124,3.1123,3.1131,3.114,3.111,3.1115,3.1107,3.1106,3.1114,3.1114,3.1117,3.1141,3.1141,3.1113,3.1114,3.1114,3.1114,0,0,0,0,0,0,0,3.1121,3.1123,3.114,3.1127,3.1126,3.1118,3.1118,3.1133,3.1121,3.1114,3.1112,3.1113,3.1113,3.1116,3.1117,3.1141,3.1113,3.1114,3.1115,3.1115,3.1191,3.1192,0,0,0,0,0,0,3.1123,3.1122,3.114,3.114,3.112,3.112,3.1119,3.1125,3.1121,3.1119,3.1114,3.1111,3.1115,3.1115,3.1117,3.1154,3.1114,3.1115,3.1116,3.1189,3.1191,3.1192,0,0,0,0,0,0,3.1122,3.1124,3.114,3.1131,3.1132,3.1122,3.1128,3.1126,3.1129,3.112,3.1118,3.1119,3.1114,3.1115,3.1135,3.1153,3.1116,3.1117,3.1188,3.119,3.1192,3.1228,0,0,0,0,0,0,3.1122,3.1124,3.1136,3.1131,3.1133,3.1158,3.1129,3.1126,3.1131,3.1127,3.1125,3.1123,3.1113,3.1133,3.1136,3.1154,3.1118,3.1186,3.1189,3.1191,3.1225,3.123,3.1235,0,0,0,0,0,3.1121,3.1146,3.1137,3.1139,3.1147,3.1159,3.116,3.1148,3.1132,3.1144,3.1139,3.1123,3.1151,3.1136,3.1138,3.1157,3.1185,3.1188,3.1191,3.1222,3.1229,3.1235,0,0,0,0,0,0,3.1153,3.1145,3.1135,3.1159,3.116,3.1154,3.1168,3.1155,3.1161,3.1158,3.1142,3.1142,3.1165,3.1163,3.1146,3.1188,3.1165,3.1169,3.1188,3.1195,3.12,3.12,3.1119,0,0,0,0,0,3.1163,3.1174,3.1166,3.1188,3.1189,3.1179,3.1184,3.1174,3.1175,3.1175,3.1171,3.1173,3.1182,3.1188,3.1196,3.1224,3.1224,3.1238,3.1244,3.1248,3.1252,3.1267,3.1274,3.1202,3.1202,3.1202,0,0,3.1184,3.1181,3.1188,3.1195,3.1194,3.1206,3.1179,3.1193,3.1201,3.1177,3.1196,3.1193,3.1194,3.1218,3.1229,3.1217,3.1272,3.1252,3.1256,3.1257,3.1271,3.1278,3.1284,3.1204,3.1204,3.1204,0,0,3.1228,3.1226,3.1245,3.1245,3.1245,3.1238,3.1243,3.1239,3.1236,3.1255,3.1237,3.1247,3.1263,3.1264,3.1267,3.1312,3.1299,3.1315,3.1344,3.1359,3.1365,3.137,3.1387,3.1393,3.1319,3.1319,3.1319,0,3.1254,3.1271,3.1256,3.1271,3.1275,3.1253,3.1272,3.1273,3.1276,3.1279,3.1266,3.1286,3.1285,3.131,3.1321,3.1324,3.1329,3.1316,3.1365,3.137,3.1374,3.139,3.1397,3.1321,3.1321,3.132,3.132,0,3.1303,3.1315,3.133,3.1333,3.1338,3.1355,3.1344,3.1351,3.1341,3.1336,3.1355,3.1353,3.1361,3.1366,3.1356,3.139,3.1383,3.1368,3.1345,3.1384,3.1398,3.1404,3.1324,3.1323,3.1323,3.1322,0,0,3.1367,3.1363,3.1369,3.137,3.1368,3.1377,3.1394,3.1401,3.1408,3.141,3.1424,3.1438,3.1424,3.1428,3.1418,3.1431,3.1468,3.1415,3.1415,3.1425,3.1506,3.1518,3.1525,3.1459,3.146,3.1461,3.1506,0,3.1411,3.1438,3.1426,3.1454,3.1466,3.1445,3.146,3.1461,3.1456,3.1465,3.146,3.1471,3.1451,3.1453,3.1466,3.1461,3.1485,3.1458,3.1472,3.1473,3.1473,3.1533,3.1545,3.1588,3.1512,3.1513,3.1514,0,3.1465,3.147,3.1499,3.1496,3.1501,3.1514,3.1519,3.1528,3.1529,3.1525,3.1529,3.1516,3.1533,3.151,3.1533,3.1515,3.152,3.1519,3.152,3.1521,3.1496,3.1536,3.1601,3.1608,3.1522,3.1522,3.1521,0,3.151,3.1524,3.1544,3.1545,3.1542,3.1552,3.1551,3.1551,3.1556,3.1561,3.1565,3.1572,3.1576,3.1582,3.1572,3.1556,3.1596,3.1572,3.1594,3.1594,3.1604,3.1603,3.1671,3.1606,3.1606,3.1606,3.1606,0,3.156,3.1579,3.1564,3.1576,3.1597,3.1583,3.1605,3.1602,3.1602,3.1614,3.1597,3.1608,3.1594,3.1604,3.1597,3.1617,3.1619,3.1616,3.1614,3.1618,3.1619,3.1622,3.1619,3.1608,3.1607,3.1607,3.1607,0,3.1614,3.1604,3.1625,3.162,3.1619,3.1635,3.1632,3.1643,3.1637,3.1653,3.1655,3.1646,3.1658,3.1648,3.1659,3.1654,3.1682,3.1675,3.1681,3.168,3.1702,3.17,3.1775,3.1784,3.1713,3.1713,3.1714,0,3.1647,3.1661,3.1658,3.1665,3.1665,3.1675,3.1681,3.1668,3.1674,3.1676,3.1688,3.1698,3.1705,3.1724,3.1719,3.1728,3.1721,3.1747,3.1723,3.1726,3.1723,3.1722,3.1724,3.1752,3.1753,3.1753,3.1754,0,3.1707,3.1701,3.1709,3.1716,3.1723,3.1727,3.1731,3.1737,3.1724,3.1732,3.1743,3.1749,3.176,3.177,3.1777,3.1777,3.1764,3.1761,3.1767,3.1772,3.1775,3.1774,3.1695,3.176,3.1759,3.1759,3.1759,3.1758,3.1752,3.1764,3.1764,3.1773,3.1774,3.1778,3.1789,3.1784,3.1793,3.1801,3.1793,3.1807,3.1808,3.1816,3.1817,3.1828,3.1818,3.1826,3.1828,3.183,3.1834,3.1773,3.1829,3.1829,3.1829,3.1829,3.1829,0,3.1811,3.181,3.1819,3.1824,3.1832,3.1818,3.1821,3.1829,3.1842,3.1843,3.1851,3.1864,3.1874,3.187,3.1879,3.1889,3.1883,3.1892,3.1891,3.1891,3.1842,3.1837,3.1896,3.1896,3.1896,3.1896,3.1896,3.1896,3.1843,3.1863,3.1858,3.1878,3.1877,3.189,3.1893,3.1897,3.1898,3.1914,3.1922,3.1919,3.1919,3.1928,3.1936,3.1935,3.1939,3.195,3.1947,3.1901,3.1895,3.1888,3.1883,3.1951,3.1951,3.1995,3.1995,3.1996]}]]